NOAA 16 DEB, 41091

Orbit data source: Space-Track

NOAA 16 DEB, 41091 is space debris in SSO originally from a launch on Thu, 21 Sep 2000 UTC launched from the Air Force Western Test Range (AFWTR). Debris objects in space refer to the collection of defunct objects orbiting the Earth. Examples of debris include non-operational satellites, rocket bodies, and fragments generated from explosions, collisions, or faulty payload assembly.

Loading next visibility...
Identifier
41091, 2000-055BA
Orbit
SSO
Country
Flag of USUS
Related business
Manufacturer
Unknown
Mission
Spacecraft
Bus & Motor
Unknown
Mass
Unknown
Launch date (UTC)
2000-09-21 (26 years ago)
Launch vehicle
Unknown
Launch site
Air Force Western Test Range (AFWTR)
Object type
Payload
Rocket body
Debris
Shape & HBR
Unknown shape, 0.1 m
Radar Cross Section
Medium (>0.1 m² and <1 m²)

Expand to show TLE details & history
Last TLE update: 2 days ago

TLE from 2 days ago
0 NOAA 16 DEB
1 41091U 00055BA  26235.29215917  .00005292  00000-0  17309-2 0  9999
2 41091  98.9680   8.2373 0034786 334.7386  25.2097 14.38595142553136
Epoch: 2026-08-23T07:00Z
TLE epoch observation values (Epoch: 2026-08-23T07:00:42.552Z)
Latitude
-0.00007°
Longitude
-68.5303°
Altitude
743.611 km
Speed
7.495 km/s
True Right ascension
00h 32m 56s
True Declination
0° 00' 00"
Sunlit
Object was in full shadow at epoch
Visualization orbit readout
Latitude
Unknown
Longitude
Unknown
Altitude
Unknown
Speed
Unknown
Apparent Right ascension
Unknown
Apparent Declination
Unknown
Sunlit
N/A
Visualization observer readout
Local Sidereal Time
10:43:42
Azimuth
Unknown
Elevation
Unknown
Doppler factor
Unknown
Orbital elements
Apogee altitude
785.122 km
Perigee altitude
735.459 km
Semi-major axis
7,138.427 km
Eccentricity
0.00348
Inclination
98.968°
RAAN
8.2373°
Arg. of periapsis
334.7386°
True anomaly
25.38015°
Mean anomaly
25.2097°
Eccentric anomaly
25.29486°
Mean motion
3.59865 °/min
Orbital period
100.04 mins
BSTAR
0.0017309
Loading maneuver chart data...
Computing Atmospheric mass density...
Loading historical data...
Loading historical data...
Loading historical data...
Loading historical data...
Loading historical data...
Loading historical data...
Loading historical data...

Documentation

Showing up to 5 results
|